GW6498 Weather Reports


time (UTC)temp
F
wind
direction
speed
knots
gust
knots
rain 1hr
in
rain 24hr
in
rain mn
in
humidity
%
barometer
mb
20260504060109 56 222 1.7 3.5 0.00 0.00 0.00 61 1004.9
20260504050537 58 236 3.5 6.1 0.00 0.00 0.00 57 1005.1
20260504045531 58 210 1.7 3.5 0.00 0.04 0.04 57 1005.0
20260504045026 58 258 5.2 6.1 0.00 0.04 0.04 57 1005.0
20260504044524 59 244 3.5 7.0 0.00 0.04 0.04 57 1005.0
20260504044021 59 248 2.6 6.1 0.00 0.04 0.04 57 1005.1
20260504043518 59 180 3.5 5.2 0.00 0.04 0.04 57 1005.0
20260504043015 59 177 2.6 7.0 0.00 0.04 0.04 57 1005.0
20260504042512 59 189 2.6 6.1 0.00 0.04 0.04 57 1005.0
20260504042009 59 210 3.5 6.1 0.00 0.04 0.04 57 1005.0
20260504041505 59 237 1.7 3.5 0.00 0.04 0.04 57 1004.9
20260504041001 59 239 3.5 5.2 0.00 0.04 0.04 57 1004.9
20260504040458 60 227 3.5 6.1 0.00 0.04 0.04 56 1004.9
20260504035954 60 231 3.5 7.8 0.00 0.04 0.04 55 1004.9
20260504035452 60 239 1.7 5.2 0.00 0.04 0.04 55 1004.8
20260504034948 61 188 6.1 7.0 0.00 0.04 0.04 54 1004.8
20260504034446 61 186 4.3 7.0 0.00 0.04 0.04 54 1004.8
20260504033943 60 194 6.1 8.7 0.00 0.04 0.04 54 1004.9
20260504033441 60 164 0.9 6.1 0.00 0.04 0.04 56 1004.8
20260504032938 59 163 2.6 7.0 0.00 0.04 0.04 58 1004.7
20260504032434 59 186 3.5 5.2 0.00 0.04 0.04 59 1004.9
20260504031931 59 185 4.3 5.2 0.00 0.04 0.04 59 1005.0
20260504031428 59 168 2.6 3.5 0.00 0.04 0.04 59 1004.9
20260504030925 59 181 2.6 5.2 0.00 0.04 0.04 59 1004.9
20260504030422 59 183 3.5 3.5 0.00 0.04 0.04 58 1004.9
20260504025918 60 149 0.9 2.6 0.00 0.04 0.04 57 1005.1
20260504025415 61 180 1.7 3.5 0.00 0.04 0.04 55 1004.9
20260504024912 62 184 2.6 3.5 0.00 0.04 0.04 53 1005.1
20260504024409 62 188 3.5 5.2 0.00 0.04 0.04 52 1004.9
20260504023906 62 175 0.9 3.5 0.00 0.04 0.04 52 1005.0
20260504023402 63 166 0.9 6.1 0.00 0.04 0.04 51 1004.9
20260504022857 63 216 3.5 7.0 0.00 0.04 0.04 51 1005.0
20260504022354 63 184 2.6 7.0 0.00 0.04 0.04 51 1004.9
20260504021851 63 198 1.7 7.0 0.00 0.04 0.04 51 1004.8
20260504021348 63 188 5.2 7.8 0.00 0.04 0.04 51 1005.0
20260504020845 63 183 1.7 6.1 0.00 0.04 0.04 51 1004.7
20260504020342 63 213 3.5 5.2 0.00 0.04 0.04 50 1004.7
20260504015838 64 230 2.6 6.1 0.00 0.04 0.04 50 1004.7
20260504015334 64 239 5.2 7.0 0.00 0.04 0.04 49 1004.6
20260504014831 64 192 4.3 7.0 0.00 0.04 0.04 49 1004.6
20260504014326 64 206 5.2 7.8 0.00 0.04 0.04 49 1004.6
20260504013825 64 183 4.3 8.7 0.00 0.04 0.04 48 1004.6
20260504013322 65 197 2.6 7.8 0.00 0.04 0.04 48 1004.5
20260504012819 65 226 5.2 7.8 0.00 0.04 0.04 47 1004.4
20260504012316 65 194 4.3 7.8 0.00 0.04 0.04 47 1004.5
20260504011814 65 213 5.2 8.7 0.00 0.04 0.04 46 1004.5
20260504011310 66 219 4.3 7.8 0.00 0.04 0.04 46 1004.5
20260504010806 66 225 5.2 8.7 0.00 0.04 0.04 45 1004.4
20260504010301 66 217 3.5 5.2 0.00 0.04 0.04 45 1004.5
20260504005759 66 201 7.0 7.8 0.00 0.04 0.04 45 1004.4
20260504005255 66 225 5.2 11.3 0.00 0.04 0.04 45 1004.4
20260504004753 66 226 1.7 7.8 0.00 0.04 0.04 45 1004.4
20260504004250 66 150 1.7 6.1 0.00 0.04 0.04 45 1004.3
20260504003747 66 252 4.3 7.0 0.00 0.04 0.04 44 1004.4
20260504003244 67 236 4.3 6.1 0.00 0.04 0.04 44 1004.5
20260504002740 67 194 1.7 5.2 0.00 0.04 0.04 44 1004.3
20260504002237 67 231 2.6 6.1 0.00 0.04 0.04 43 1004.5
20260504001735 68 184 2.6 5.2 0.00 0.04 0.04 43 1004.5
20260504001232 68 192 1.7 7.0 0.00 0.04 0.04 42 1004.4
20260504000728 68 216 4.3 6.1 0.00 0.04 0.04 41 1004.4
20260504000226 68 232 4.3 7.8 0.00 0.04 0.04 41 1004.4
20260503235724 68 242 4.3 6.1 0.00 0.04 0.04 41 1004.4
20260503235220 69 215 2.6 7.8 0.00 0.04 0.04 41 1004.3
20260503234718 69 115 3.5 6.1 0.00 0.04 0.04 41 1004.4
20260503234216 69 169 2.6 6.1 0.00 0.04 0.04 40 1004.4
20260503233713 69 247 3.5 7.8 0.00 0.04 0.04 39 1004.6
20260503233208 69 253 5.2 7.8 0.00 0.04 0.04 39 1004.6
20260503232705 70 248 2.6 7.8 0.00 0.04 0.04 40 1004.4
20260503232203 70 263 3.5 7.8 0.00 0.04 0.04 39 1004.5
20260503231701 70 168 2.6 6.1 0.00 0.04 0.04 39 1004.7
20260503231157 70 244 5.2 12.2 0.00 0.04 0.04 40 1004.7
20260503230654 70 199 4.3 7.8 0.00 0.04 0.04 39 1004.7
20260503230151 69 281 5.2 8.7 0.00 0.04 0.04 39 1004.8
20260503225648 69 251 4.3 11.3 0.00 0.04 0.04 39 1004.7
20260503225148 69 303 5.2 7.8 0.00 0.04 0.04 39 1004.8
20260503224646 70 251 8.7 12.2 0.00 0.04 0.04 38 1004.7
20260503224143 69 167 5.2 7.8 0.00 0.04 0.04 39 1004.8
20260503223641 69 117 3.5 9.6 0.00 0.04 0.04 39 1004.8
20260503223137 70 255 4.3 13.0 0.00 0.04 0.04 39 1004.8
20260503222635 70 252 4.3 8.7 0.00 0.04 0.04 39 1004.7
20260503222132 70 212 4.3 7.8 0.00 0.04 0.04 38 1004.9
20260503221631 70 230 4.3 7.8 0.00 0.04 0.04 39 1004.9
20260503221128 69 164 3.5 7.0 0.00 0.04 0.04 39 1004.8
20260503220624 70 255 6.1 9.6 0.00 0.04 0.04 39 1004.8
20260503220121 70 247 8.7 9.6 0.00 0.04 0.04 38 1004.9
20260503215618 70 275 8.7 15.6 0.00 0.04 0.04 38 1004.8
20260503215114 70 260 7.0 9.6 0.00 0.04 0.04 39 1004.8
20260503214614 69 261 3.5 14.8 0.00 0.04 0.04 38 1004.6
20260503214109 69 274 7.0 12.2 0.00 0.04 0.04 38 1004.9
20260503213608 69 198 11.3 19.1 0.00 0.04 0.04 38 1005.0
20260503213104 69 170 8.7 16.5 0.00 0.04 0.04 38 1005.0
20260503212601 70 243 6.1 13.0 0.00 0.04 0.04 38 1005.0
20260503212059 70 214 4.3 9.6 0.00 0.04 0.04 39 1005.1
20260503211556 68 230 8.7 12.2 0.00 0.04 0.04 39 1005.2
20260503211051 69 223 10.4 13.0 0.00 0.04 0.04 38 1005.4
20260503210548 68 212 9.6 13.0 0.00 0.04 0.04 39 1005.3
20260503210044 68 245 6.1 13.0 0.00 0.04 0.04 40 1005.5
20260503205541 67 219 11.3 15.6 0.00 0.04 0.04 40 1005.5
20260503205037 68 203 7.0 14.8 0.00 0.04 0.04 39 1005.4
20260503204534 68 274 6.1 14.8 0.00 0.04 0.04 40 1005.7
20260503204031 67 177 6.1 9.6 0.00 0.04 0.04 42 1006.0
20260503203528 67 235 7.0 18.2 0.00 0.04 0.04 40 1006.1
20260503203025 66 176 6.1 15.6 0.00 0.04 0.04 42 1006.2
20260503202523 66 198 13.0 19.1 0.00 0.04 0.04 40 1006.3
20260503202021 67 202 10.4 20.9 0.00 0.04 0.04 40 1006.4
20260503201519 67 207 9.6 13.9 0.00 0.04 0.04 39 1006.4
20260503201016 66 184 8.7 15.6 0.00 0.04 0.04 40 1006.7
20260503200512 66 200 7.8 13.9 0.00 0.04 0.04 40 1006.7
20260503200009 64 204 12.2 16.5 0.00 0.04 0.04 42 1006.7
20260503195506 64 190 13.9 16.5 0.00 0.04 0.04 41 1006.9
20260503195002 64 224 9.6 18.2 0.00 0.04 0.04 41 1007.2
20260503194500 64 207 9.6 14.8 0.00 0.04 0.04 41 1007.1
20260503193955 64 244 9.6 15.6 0.00 0.04 0.04 40 1007.3
20260503193451 64 218 6.1 20.9 0.00 0.04 0.04 42 1007.5
20260503192946 63 202 7.8 11.3 0.00 0.04 0.04 41 1007.5
20260503192443 63 205 8.7 20.0 0.00 0.04 0.04 40 1007.6
20260503191938 63 216 13.0 19.1 0.00 0.04 0.04 41 1007.3
20260503191436 64 190 6.1 13.0 0.00 0.04 0.04 42 1007.4
20260503190932 63 224 13.0 20.9 0.00 0.04 0.04 43 1007.5
20260503190430 63 213 7.8 13.9 0.00 0.04 0.04 46 1007.5
20260503185927 63 239 12.2 20.9 0.00 0.04 0.04 49 1007.5
20260503185423 61 235 11.3 15.6 0.00 0.04 0.04 50 1007.8
20260503184922 61 143 7.8 19.1 0.00 0.04 0.04 53 1007.9
20260503184419 61 223 12.2 20.9 0.00 0.04 0.04 53 1007.9
20260503183916 61 174 13.9 16.5 0.00 0.04 0.04 55 1007.7
20260503183412 60 156 9.6 16.5 0.00 0.04 0.04 57 1008.0
20260503182909 59 194 13.0 20.0 0.00 0.04 0.04 59 1007.9
20260503182409 59 179 13.0 21.7 0.00 0.04 0.04 60 1007.9
20260503181905 58 182 14.8 21.7 0.00 0.04 0.04 59 1008.1
20260503181402 58 190 12.2 22.6 0.00 0.04 0.04 62 1008.2
20260503180858 57 182 8.7 20.0 0.00 0.04 0.04 66 1008.3
20260503180356 56 176 13.9 21.7 0.00 0.04 0.04 64 1008.4
20260503175853 55 166 15.6 26.1 0.00 0.04 0.04 65 1008.4
20260503175351 55 161 14.8 20.0 0.00 0.04 0.04 65 1008.6
20260503174846 55 174 10.4 20.9 0.00 0.04 0.04 67 1008.7
20260503174345 54 186 13.0 16.5 0.00 0.04 0.04 66 1008.8
20260503173839 54 165 12.2 20.9 0.00 0.04 0.04 66 1009.1
20260503173336 54 158 9.6 18.2 0.00 0.04 0.04 66 1009.1
20260503172833 54 170 13.0 20.9 0.00 0.04 0.04 65 1009.4
20260503172331 54 167 11.3 18.2 0.00 0.04 0.04 67 1009.5
20260503171826 54 155 8.7 13.9 0.00 0.04 0.04 72 1009.3
20260503171323 53 170 13.0 20.9 0.00 0.04 0.04 71 1009.3
20260503170821 52 168 9.6 14.8 0.00 0.04 0.04 76 1009.6
20260503170317 51 176 11.3 13.0 0.00 0.04 0.04 75 1009.9
20260503150709 49 155 2.6 7.0 0.07 0.03 0.03 80 1012.2
20260503150205 49 190 3.5 7.8 0.09 0.02 0.02 78 1012.5
20260503140130 54 190 6.1 8.7 0.00 0.00 0.00 56 1012.2
20260503131059 50 267 5.2 8.7 0.00 0.00 0.00 56 1013.3
20260503130556 50 242 7.0 8.7 0.00 0.00 0.00 57 1013.1
20260503110447 47 191 3.5 7.8 0.00 0.00 0.00 57 1012.3
20260503090338 49 223 4.3 9.6 0.00 0.00 0.00 49 1012.8
20260503081306 48 198 5.2 8.7 0.00 0.00 0.00 47 1013.3
20260503080802 48 224 3.5 7.0 0.00 0.00 0.00 47 1013.3
20260503080259 48 240 5.2 6.1 0.00 0.00 0.00 47 1013.3
20260503072735 49 232 3.5 7.8 0.00 0.00 0.00 45 1013.6
20260503072232 49 236 7.0 7.8 0.00 0.00 0.00 45 1013.5
20260503071729 49 170 3.5 7.0 0.00 0.00 0.00 44 1013.7
20260503071226 49 208 6.1 7.0 0.00 0.00 0.00 44 1013.5
20260503070722 49 178 2.6 6.1 0.00 0.00 0.00 44 1013.6
20260503070220 50 206 2.6 6.1 0.00 0.00 0.00 43 1013.7